OneWeb SL0652

operational
NORAD ID: 55814 Int'l Des: 2023-029 Owner: ONEWEBN Country: UK Constellation: oneweb
LEOCIRCULARPOLARONEWEB_TYPE

OneWeb SL0652について

説明を読み込み中...

リアルタイム位置

3D地球を読み込み中...

次回通過

高度履歴

Altitude vs Time

uPlot chart will show altitude changes over time

軌道要素

1 55814U 23029U 26034.20217517 -.00000070 00000-0 -22342-3 0 9994
2 55814 87.9022 316.4325 0001886 77.0458 283.0883 13.14503232141766
Epoch: Feb 3, 2026 • Age: 9 hours

現在のステータス

高度 1212.1 km
速度 7.25 km/s
衛星直下点 48.34°N, 28.53°W
打ち上げ日 Mar 9, 2023
運用期間 2.9 years
タイプ internet

技術仕様

分類 Payload
質量 148.00 kg
乾燥質量 140.00 kg
総質量 148.00 kg
長さ 1.30 m
直径 1.00 m
スパン 5.00 m
形状 Trapezoid+2 pan
製造者 ONEWUS
バスタイプ ARROW
フェーズステータス In Orbit
所有者/国 ONEWEBN/UK

大規模コンステレーション

Loading constellations...